Location: La Pernelle
(49.6188°N, 1.2999°W)
Time: 11:17:43
(UTC+00:00)

Meteor 2-20 - Pass Details

Date: 23 October 2021
Orbit: 939 x 958 km, 82.5° (Epoch: 08 December)

Event Time Altitude Azimuth Distance (km) Brightness Sun altitude
Rises 18:09:55 0° 339° (NNW) 3,614 7.7 -12.2°
Reaches altitude 10° 18:13:06 10° 322° (NW) 2,665 7.3 -12.7°
Maximum altitude 18:17:12 19° 280° (W) 2,071 7.3 -13.3°
Drops below altitude 10° 18:21:17 10° 237° (WSW) 2,654 7.7 -14.0°
Sets 18:24:28 0° 220° (SW) 3,596 8.1 -14.5°
